Lapse_Rate
4.9 6.5 6.5 6.5 6.5 6.5 6.5 6.5 6.5 6.5 6.5 6.5 6.5 6.5 6.5 4.5 5.4 4.9 5.2 5.5 5.3 3.3 3.0 0.3 -0.4 1.5 1.7 0.4 1.6 2.1 0.5 2.0 2.9 3.7 2.4 2.6 1.7 1.6 1.7 1.1 2.3 3.2 3.4 3.9
6.5 6.5 6.5 6.5 6.5 6.5 6.5 6.5 6.5 6.5 6.5 6.5 6.5 6.5 6.5 6.4 5.8 4.6 5.7 3.9 3.8 5.2 2.7 2.1 1.9 0.6 -0.5 0.8 1.2 2.7 1.3 1.8 1.0 1.4 1.8 2.1 2.6 3.2 2.8 3.0 2.7 3.6 3.8 4.3
6.5 6.5 6.5 6.5 6.5 6.5 6.5 6.5 6.5 6.5 6.5 6.5 6.5 6.5 6.5 6.3 5.1 6.4 5.6 3.4 2.4 0.9 1.3 2.1 2.3 0.8 1.2 3.6 4.2 3.3 0.4 0.6 0.3 0.4 2.3 2.9 3.1 3.7 3.9 4.1 2.9 3.2 3.9 4.7
6.5 6.4 6.5 6.5 6.5 6.5 6.5 6.5 6.5 6.5 6.5 6.5 6.5 6.5 6.5 6.5 6.5 6.4 6.2 5.4 4.9 4.9 4.4 5.3 5.2 4.4 3.5 5.5 4.6 2.1 0.6 1.6 2.5 3.1 3.3 3.8 4.6 4.8 4.7 4.5 3.9 4.4 5.2 5.6
6.5 6.5 6.5 6.5 6.5 6.5 6.5 6.5 6.5 6.5 6.5 6.5 6.5 6.5 6.5 6.5 6.5 6.5 6.2 6.7 5.7 5.1 5.1 5.5 5.7 6.0 5.4 4.1 2.8 2.8 1.9 1.9 1.9 1.8 2.1 2.1 3.7 2.4 2.3 3.0 3.8 3.6 4.6 6.1
6.5 5.3 6.4 6.5 6.5 6.5 6.5 6.5 6.5 6.5 6.5 6.5 6.5 6.5 6.5 6.5 6.5 6.5 6.2 6.6 6.4 6.3 5.9 5.7 5.7 5.7 4.6 3.8 3.2 2.2 1.1 0.3 0.5 1.2 1.8 2.1 2.4 2.8 2.4 2.3 1.7 2.7 3.6 3.5
6.5 6.5 6.4 6.2 6.5 6.5 6.5 6.5 6.5 6.5 6.5 6.5 6.5 6.5 6.5 6.5 6.5 6.5 6.4 6.2 5.9 5.5 5.5 5.7 5.8 5.7 4.3 2.8 1.9 1.5 1.4 1.6 1.7 1.5 1.5 1.6 1.5 1.6 1.0 1.2 1.7 1.8 2.5 3.5
6.5 6.5 6.5 6.5 6.5 6.5 6.5 6.5 6.5 6.5 6.5 6.5 6.5 6.5 6.5 6.5 6.0 5.8 6.2 5.8 5.9 5.8 5.7 6.2 6.4 6.3 5.8 5.4 4.2 3.6 3.1 2.4 2.0 1.6 1.4 1.2 1.2 0.9 1.2 1.6 2.0 2.3 2.7 3.1
6.5 6.5 6.5 6.5 6.5 6.5 6.5 6.5 6.5 6.5 6.5 6.5 6.5 6.5 6.5 6.5 6.5 6.1 5.6 5.7 5.5 5.6 5.0 5.3 5.2 5.7 5.3 4.8 4.4 3.7 2.7 2.4 2.6 1.9 1.4 1.6 1.8 1.8 2.0 2.6 2.9 2.7 3.1 4.6
6.5 6.5 6.5 6.5 6.2 6.2 6.5 6.5 6.5 6.5 6.5 6.5 6.5 6.5 6.5 6.5 6.5 6.5 6.0 4.4 4.0 4.7 4.9 5.1 5.0 4.9 4.8 4.9 4.5 3.9 3.5 2.8 3.0 3.0 2.5 2.0 2.0 2.7 3.3 2.9 3.4 3.7 3.7 4.5
6.5 6.5 6.5 6.5 6.5 6.5 6.5 6.5 6.5 6.5 6.5 6.5 6.5 6.5 6.5 6.5 6.5 6.5 5.9 4.1 4.7 4.8 5.1 5.0 4.9 4.9 4.7 4.9 4.5 3.9 3.8 3.6 3.5 2.4 2.4 2.5 3.0 3.7 3.3 4.3 4.5 4.9 4.7 4.8
6.5 6.5 6.5 6.5 6.5 6.5 6.5 6.5 6.5 6.5 6.5 6.5 6.5 6.5 6.5 6.5 6.4 6.0 6.1 6.0 5.5 5.3 5.0 5.2 5.0 5.0 4.8 4.8 4.6 4.5 4.6 3.5 3.4 3.0 2.8 3.1 4.1 4.8 5.2 5.7 5.9 5.0 5.0 5.4
6.5 6.5 6.5 6.5 6.5 6.5 6.5 6.5 6.5 6.5 6.5 6.5 6.5 6.5 6.5 6.2 6.2 5.6 5.7 6.3 5.7 5.8 5.5 5.5 5.5 5.2 5.1 4.6 4.5 5.1 4.2 3.6 3.0 3.1 3.2 4.3 4.8 4.9 5.4 6.0 5.4 5.6 5.6 5.8
4.8 6.5 6.5 6.5 6.5 6.5 6.5 6.5 6.5 6.5 6.5 6.5 6.5 6.5 6.5 6.5 6.5 6.3 5.2 3.2 3.4 4.1 5.9 5.8 5.3 4.7 4.6 4.8 4.7 4.3 3.7 2.8 3.3 4.4 4.7 5.4 5.4 5.7 5.4 5.8 5.9 5.9 5.5 5.8
6.5 6.5 6.5 6.5 6.5 6.5 6.5 6.5 6.5 6.5 6.5 6.5 6.5 6.5 6.5 6.5 6.5 6.2 4.1 3.5 4.7 4.9 6.5 5.6 4.9 4.5 4.0 4.2 4.4 3.9 3.0 3.2 4.1 4.1 5.5 5.6 5.4 5.4 5.9 5.8 5.3 5.3 5.5 6.1
6.5 6.5 6.5 6.5 6.5 6.5 6.5 6.5 6.5 6.5 6.5 6.5 6.5 6.5 6.5 5.3 6.4 6.4 5.7 5.1 5.2 6.6 5.7 5.8 5.6 5.1 4.9 4.7 4.0 4.0 3.4 3.8 3.6 4.7 5.5 5.5 5.8 6.3 5.8 5.5 5.4 5.1 5.3 5.8
6.5 6.5 6.5 6.5 6.5 6.5 6.5 6.5 6.5 6.5 6.5 6.5 6.5 6.5 6.6 6.5 6.3 6.1 5.8 5.4 6.4 6.5 6.2 5.5 5.4 5.0 4.4 3.9 3.5 2.8 3.5 3.7 4.2 5.1 5.6 6.0 6.3 6.6 6.3 6.2 5.5 5.3 5.3 5.0
6.5 6.5 6.5 6.5 6.5 6.5 6.5 6.5 6.5 6.5 6.5 6.5 6.5 6.5 6.2 5.9 4.1 3.9 3.8 5.7 5.4 5.1 5.2 5.1 4.5 3.5 3.2 2.9 2.5 2.7 3.4 4.0 4.9 5.0 5.2 6.7 6.4 6.3 6.0 5.6 5.5 5.1 4.8 4.9
6.5 6.5 6.5 6.5 6.5 6.5 6.5 6.5 6.5 6.5 6.5 6.5 6.5 6.5 6.2 5.4 4.5 5.0 4.1 4.2 3.9 3.7 3.7 3.5 2.9 2.6 2.3 2.1 2.3 2.7 3.5 4.4 5.0 5.6 6.0 6.3 6.5 6.5 6.3 5.8 4.9 4.9 4.2 3.7
6.5 6.5 6.5 6.5 6.5 6.5 6.5 6.5 6.2 6.5 6.5 6.5 6.3 6.5 6.3 5.1 6.5 6.5 4.8 4.0 3.7 3.4 2.8 2.6 2.6 2.3 1.9 1.6 2.3 3.2 4.6 4.9 5.8 5.7 6.2 6.8 6.5 6.4 5.9 4.9 5.3 4.4 3.8 3.8
6.5 6.5 6.5 6.5 6.5 6.5 6.5 6.5 5.4 6.5 6.5 5.6 5.1 6.1 5.9 6.5 5.3 4.7 4.6 4.3 3.8 3.3 3.1 2.9 2.8 1.9 1.5 2.5 3.1 4.4 5.6 5.3 6.1 6.4 6.8 6.6 6.2 6.1 5.5 5.3 4.6 4.0 3.7 3.6
6.5 6.5 6.5 6.5 6.5 6.5 6.5 6.1 6.5 5.5 5.1 4.2 4.0 4.5 5.1 5.3 5.2 4.9 4.7 4.7 4.5 4.3 4.4 3.7 2.5 1.8 2.5 3.3 4.0 5.2 5.5 6.2 6.7 7.0 6.7 6.3 6.1 5.9 6.3 4.9 4.1 3.9 3.6 4.2
6.5 6.5 6.5 6.5 6.5 6.0 5.2 4.8 3.0 2.2 5.9 6.3 6.1 6.4 6.4 6.2 5.7 5.5 5.2 4.8 4.8 4.8 4.9 4.1 3.0 3.1 3.5 4.5 4.7 5.4 5.7 6.5 6.9 6.1 5.6 5.6 5.7 5.8 4.8 4.0 3.7 3.3 3.5 3.6
6.5 6.2 6.5 6.5 6.5 6.5 4.9 4.9 4.2 4.3 5.5 4.8 5.9 6.5 6.4 6.3 6.1 5.9 5.4 5.3 5.4 5.6 5.1 4.6 3.6 3.5 3.8 4.6 6.3 5.4 6.2 6.7 6.5 5.8 5.4 4.9 4.9 4.8 3.9 3.5 3.2 2.8 2.5 2.8
6.4 6.4 6.5 6.5 6.5 6.2 6.4 5.4 4.9 6.0 5.8 6.6 6.8 6.8 6.5 6.0 6.2 6.0 5.7 5.9 5.9 5.4 5.1 4.9 4.3 4.0 4.4 5.3 5.6 6.3 6.4 6.6 6.1 5.5 5.1 4.8 4.2 3.9 3.6 3.7 2.4 3.1 1.2 2.9
6.2 6.5 6.5 6.5 6.1 6.1 5.3 4.5 4.3 5.6 6.2 6.2 6.5 6.5 6.4 5.7 6.1 6.0 6.2 6.0 5.7 5.2 5.0 4.6 4.8 5.0 5.4 5.9 6.4 6.2 6.1 6.4 6.4 6.1 5.2 4.5 3.9 3.7 3.8 3.2 3.3 0.3 1.6 2.7
Wind_Speed
7 3 8 11 12 15 12 12 14 11 5 8 9 7 10 9 4 7 18 19 18 21 14 16 19 19 20 7 7 16 12 6 6 3 4 4 4 3 4 9 11 12 10 6
6 11 11 14 15 15 16 10 10 8 10 4 9 7 3 5 6 6 18 15 17 14 12 10 18 22 19 5 8 6 8 7 4 3 1 3 3 4 5 6 7 7 6 4
11 11 16 17 16 13 10 3 8 8 12 6 4 1 3 10 5 17 16 16 12 18 16 12 9 8 6 8 1 2 5 6 4 4 3 4 4 2 3 3 2 3 6 0
9 18 17 15 13 11 5 4 8 12 7 4 3 5 6 8 10 14 16 19 17 19 15 13 11 8 8 7 3 6 7 7 6 5 5 7 4 3 2 2 2 3 5 5
14 14 11 16 10 9 7 5 6 8 9 4 12 2 8 5 10 11 16 22 18 18 18 17 13 14 13 9 6 4 7 8 8 10 8 7 6 4 2 3 4 4 4 4
11 11 15 18 11 9 5 5 7 4 3 3 10 3 10 7 9 9 15 20 19 18 17 15 11 12 13 8 6 6 7 8 9 9 8 8 7 5 4 4 4 4 3 4
15 17 14 11 9 5 5 1 2 3 3 7 8 6 15 7 15 18 19 18 18 17 16 15 13 11 12 9 8 7 8 8 8 8 7 7 5 6 6 5 4 6 4 3
11 12 17 11 10 8 7 9 6 6 5 6 7 6 9 11 14 14 15 16 17 16 14 14 14 13 13 11 10 9 8 8 7 7 6 6 7 4 4 5 4 4 3 3
5 18 15 15 6 10 9 6 9 4 5 3 4 4 5 14 14 14 13 14 13 14 11 12 10 12 12 10 9 9 9 8 7 6 6 5 5 6 5 5 4 3 4 4
14 12 17 11 12 10 11 7 4 1 5 5 6 4 4 10 11 11 11 10 9 11 13 12 11 10 8 8 8 9 8 8 7 6 6 5 5 6 5 5 5 4 4 5
15 8 23 12 5 14 4 5 3 4 6 6 3 5 8 14 15 14 13 13 16 13 14 12 11 9 9 8 8 8 8 8 7 7 5 6 4 4 4 3 2 2 3 5
11 10 8 17 20 9 11 11 10 5 5 3 6 5 1 13 16 19 19 18 15 15 13 12 11 9 7 8 7 7 7 7 7 6 6 4 2 1 0 1 2 4 4 5
11 6 7 10 9 6 8 8 7 5 5 7 5 5 6 5 4 5 14 13 11 10 13 12 11 8 9 7 7 7 7 7 7 6 4 2 1 3 3 2 4 3 3 5
17 7 13 13 11 5 3 6 7 7 4 5 6 5 3 4 12 15 20 19 16 11 5 8 9 8 9 8 7 7 7 7 5 1 3 2 2 1 3 2 3 3 5 4
8 8 7 11 13 14 8 9 11 9 7 8 9 9 9 10 15 18 22 18 19 18 13 12 9 9 9 8 8 8 7 6 1 3 2 1 4 4 4 4 5 6 4 4
8 4 7 8 13 18 15 15 11 9 7 5 9 6 7 6 16 18 19 18 18 17 18 15 13 13 11 10 8 8 6 4 3 2 3 5 4 3 4 4 5 5 5 4
6 3 5 7 7 8 14 17 15 9 9 7 9 6 9 7 7 13 15 18 16 14 17 14 14 12 9 8 11 8 6 4 2 3 5 5 3 2 1 3 5 4 3 3
13 8 2 5 4 12 6 8 10 12 15 6 16 11 8 9 8 9 6 18 13 15 13 13 11 9 10 9 8 7 6 3 3 5 6 2 3 3 4 5 2 3 3 4
9 9 5 6 7 6 12 10 6 3 5 18 20 21 17 13 15 11 14 15 14 12 9 11 12 13 10 9 8 7 4 3 4 5 4 4 4 3 3 4 5 4 4 5
8 7 7 2 9 15 1 3 6 2 4 10 22 21 19 11 7 3 11 18 16 15 14 14 13 12 11 7 7 6 4 4 1 5 3 3 4 2 4 4 3 4 4 6
4 4 8 6 7 5 2 2 4 6 7 6 9 16 13 8 10 11 15 14 15 15 16 14 12 10 8 7 6 3 3 4 1 2 3 4 3 3 4 3 3 4 7 5
8 7 4 3 3 6 1 3 5 6 11 18 16 14 8 18 19 16 16 15 15 16 14 12 11 8 7 6 4 4 4 1 0 1 4 3 4 4 4 4 5 7 5 3
5 7 8 9 8 8 10 5 6 7 18 18 24 21 14 19 18 16 14 14 12 11 11 11 10 8 5 4 6 4 4 3 2 4 4 4 4 4 5 5 7 5 4 2
9 4 5 7 8 12 10 6 9 6 13 20 22 20 20 20 17 15 14 12 8 9 11 9 8 7 5 3 3 4 5 3 3 4 5 5 4 5 7 5 5 4 3 3
3 4 6 5 13 10 6 5 9 16 19 20 20 21 20 19 15 16 13 10 10 9 7 8 8 7 7 6 5 4 5 3 3 4 5 4 4 6 6 6 2 1 0 3
2 3 3 2 6 4 6 4 6 17 13 16 20 18 18 18 16 15 11 11 9 8 7 7 8 8 7 6 6 5 5 4 1 2 3 4 4 5 4 4 4 5 6 5
Wind_Direction
246 186 233 225 235 242 267 277 278 282 303 144 195 209 247 269 228 169 91 97 106 104 120 119 124 123 168 234 1 327 102 90 87 42 79 73 84 90 77 73 80 78 68 48
255 225 233 242 245 245 256 280 288 308 337 89 200 224 226 277 293 136 112 108 121 113 127 123 133 151 188 146 68 344 48 88 65 84 62 113 101 85 86 102 98 97 88 70
216 244 223 245 262 267 265 285 310 294 312 325 140 304 283 293 326 105 107 107 94 115 128 116 130 134 115 121 297 128 80 78 53 86 87 79 72 64 94 125 99 119 138 173
232 237 253 241 245 258 263 300 289 289 322 278 131 253 251 242 252 104 102 115 123 125 125 123 131 153 148 182 147 62 64 75 62 55 72 95 96 108 154 121 158 193 210 226
234 242 249 250 235 230 235 289 269 279 313 304 301 76 266 253 220 115 104 123 123 125 125 123 124 123 117 98 88 86 76 73 63 60 61 72 75 71 70 49 22 2 318 246
245 226 233 242 245 207 266 275 297 313 38 343 255 233 278 269 148 134 120 118 117 114 111 113 117 117 118 116 118 101 88 74 67 67 70 85 87 88 74 45 42 7 1 55
266 263 257 250 226 235 173 187 320 339 333 250 265 269 256 284 150 141 131 120 121 119 122 128 134 133 127 129 115 92 87 89 89 84 79 79 65 70 88 70 43 21 8 19
233 261 253 246 199 179 202 164 164 210 222 260 275 249 270 118 100 101 112 121 125 132 141 146 147 146 142 137 129 131 130 115 105 99 90 76 69 76 70 66 43 36 34 358
235 232 260 230 211 148 247 236 199 199 275 339 240 114 4 119 123 126 127 133 141 143 137 135 125 125 128 135 142 136 120 120 123 130 115 93 80 68 64 53 52 41 21 340
244 274 272 277 227 195 179 200 199 340 249 241 271 238 193 143 143 135 137 141 127 131 121 123 125 124 118 120 124 119 120 124 116 100 92 84 77 73 57 58 57 36 356 339
213 197 267 282 264 205 181 229 218 150 163 196 228 266 188 171 161 162 165 150 145 138 134 129 126 116 120 112 106 115 115 115 99 95 82 72 65 48 75 65 29 10 358 345
207 198 236 257 267 241 173 190 183 149 274 216 161 264 335 158 176 177 173 155 143 138 127 125 118 128 133 126 121 121 117 106 106 100 86 93 48 64 48 105 68 18 19 346
208 221 225 276 298 319 217 197 181 173 149 220 142 264 232 229 171 149 155 129 93 97 121 127 127 143 127 122 116 110 96 100 87 79 119 158 247 50 12 349 70 29 325 306
178 176 201 221 239 233 221 185 207 159 162 211 209 230 193 78 88 90 94 100 89 61 213 149 142 139 128 134 133 115 100 94 98 141 216 178 140 256 273 182 202 263 273 275
146 188 177 220 211 248 261 275 214 213 204 180 229 229 162 164 132 125 123 129 148 166 177 157 153 140 132 134 121 108 104 101 135 281 118 212 247 229 238 253 249 247 260 259
304 214 166 221 219 228 253 270 265 222 261 209 198 204 169 107 121 140 152 158 166 181 157 155 147 139 144 141 132 121 124 128 160 274 248 261 229 227 251 263 270 252 271 272
303 330 144 237 221 217 246 234 252 220 215 220 214 163 130 137 134 149 160 169 167 157 150 149 152 149 146 135 123 126 132 134 199 242 272 265 224 261 341 329 329 355 318 301
274 262 214 216 180 229 239 200 249 260 204 158 95 94 87 97 89 67 74 155 142 134 143 141 133 114 107 109 102 106 110 130 215 257 270 25 40 30 13 3 22 335 309 286
223 231 253 183 207 244 239 256 228 103 250 153 141 149 137 115 81 42 72 98 114 122 120 115 115 115 110 108 114 112 131 212 262 281 55 31 5 350 346 326 305 296 294 296
233 226 220 191 207 229 122 123 263 97 70 7 139 138 139 132 107 136 97 100 97 100 107 112 109 105 103 107 110 130 197 238 76 42 8 330 311 351 325 324 289 266 283 283
159 100 201 225 232 247 109 272 276 124 195 40 151 151 155 139 141 137 109 96 100 106 108 105 102 108 115 115 126 192 93 82 32 338 329 312 341 326 312 261 284 283 290 327
171 158 183 136 63 267 184 57 150 205 134 104 86 98 100 114 114 109 108 108 109 112 108 105 103 105 115 127 138 119 94 230 74 315 291 304 304 296 309 288 296 303 302 247
166 180 176 184 200 275 281 236 168 170 129 126 128 123 132 120 115 117 117 111 114 115 112 110 114 118 132 141 142 130 192 92 358 338 13 2 338 329 316 314 297 302 294 255
6 112 165 140 178 163 229 304 139 167 136 131 132 136 133 127 125 122 113 120 123 119 120 126 125 123 125 141 163 214 129 89 18 22 334 310 336 324 311 310 290 302 321 65
19 306 318 106 147 141 182 183 120 111 124 128 130 133 130 124 125 123 127 130 126 129 124 129 134 142 163 184 216 125 113 77 56 358 341 353 341 326 311 310 307 57 262 149
292 8 35 312 4 287 148 188 152 137 142 140 134 133 132 125 125 131 135 129 133 124 123 118 141 154 178 169 144 125 105 78 7 348 337 336 326 319 314 311 322 31 148 109